(136686) = 1995 SQ35

Discovered at Kitt Peak on 1995-09-23 by Spacewatch.

Orbit

Orbit type: Main Belt

Note: WebGL enabled browser required.

epoch2023-09-13.0
epoch JD2460200.5
perihelion date2021-07-21.38701
perihelion JD2459416.88701
argument of perihelion (°)235.77961
ascending node (°)185.26137
inclination (°)3.57287
eccentricity0.2020397
perihelion distance (AU)1.8825221
Tisserand w.r.t. Jupiter3.5
ΔV w.r.t. Earth (km/sec)8.6
semimajor axis (AU)2.3591677
mean anomaly (°)213.14112
mean daily motion (°/day)0.27199800
aphelion distance (AU)2.836
period (years)3.62
P-vector [x]0.48433129
P-vector [y]0.82179477
P-vector [z]0.30012757
Q-vector [x]-0.87486602
Q-vector [y]0.45717200
Q-vector [z]0.16001003
absolute magnitude17.4
phase slope0.15
uncertainty0
referenceMPEC 2023-X132
observations used319
oppositions14
arc length (days)10107
first opposition used1995
last opposition used2023
residual rms (arc-secs)0.79
perturbers coarse indicatorM-v
perturbers precise indicator003Ek
first observation date used1995-09-18.0
last observation date used2023-05-21.0
computer nameMPCLINUX
JD of orbit computation2456612.617840
perihelion JD uncertainty (days)8.0386E-05
argument of perihelion uncertainty (°)7.0302E-05
ascending node uncertainty (°)6.5327E-05
inclination uncertainty (°)8.1210E-06
eccentricity uncertainty 4.9850E-08
perihelion distance uncertainty (AU)1.1699E-07
Minimum Orbit Intersection Distances (in AU)
for orbit epoch: 2460200.5, reference: E2023-XD2
Mercury1.57254
Venus1.16144
Earth0.89679
Mars0.3774
Jupiter2.50045
Saturn7.00828
Uranus15.8886
Neptune27.6982

Observations

327 total observations over interval: 1995 09 18.25904 – 2023 05 21.491008
These data are available for download (format description).

Date (UT) J2000 RA J2000 Dec Magn Location Ref
1995 09 18.25904 23 27 02.34 -01 57 51.3 19.4 V 691 – Steward Observatory, Kitt Peak-Spacewatch MPS 32123
1995 09 18.28037 23 27 01.12 -01 58 01.5 19.2 V 691 – Steward Observatory, Kitt Peak-Spacewatch MPS 32123
1995 09 18.30104 23 27 00.04 -01 58 11.8 19.3 V 691 – Steward Observatory, Kitt Peak-Spacewatch MPS 32123
1995 09 23.17955 23 22 48.08 -02 37 50.9 19.9 V 691 – Steward Observatory, Kitt Peak-Spacewatch MPC 25853
1995 09 23.20019 23 22 46.98 -02 38 00.5   691 – Steward Observatory, Kitt Peak-Spacewatch MPC 25853
1995 09 23.22086 23 22 45.90 -02 38 10.7   691 – Steward Observatory, Kitt Peak-Spacewatch MPC 25853
1995 09 27.28667 23 19 24.20 -03 10 36.7   691 – Steward Observatory, Kitt Peak-Spacewatch MPC 25853
1995 09 27.31630 23 19 22.72 -03 10 50.3 19.7 V 691 – Steward Observatory, Kitt Peak-Spacewatch MPC 25853
1995 09 27.33715 23 19 21.67 -03 11 00.8   691 – Steward Observatory, Kitt Peak-Spacewatch MPC 25853
2000 01 06.17068 05 09 50.21 +16 03 30.1 19.7   704 – Lincoln Laboratory ETS, New Mexico MPS 213615
2000 01 06.18528 05 09 49.79 +16 03 32.2 19.6   704 – Lincoln Laboratory ETS, New Mexico MPS 213615
2002 07 22.40779 21 18 01.94 -10 35 45.7 20.0 R 644 – Palomar Mountain/NEAT MPS 172690
2002 07 22.41947 21 18 01.33 -10 35 48.4 20.0 R 644 – Palomar Mountain/NEAT MPS 172690
2002 07 22.43233 21 18 00.71 -10 35 51.4 20.0 R 644 – Palomar Mountain/NEAT MPS 172690
2002 08 07.38294 21 03 28.36 -11 48 20.7 20.7 R 644 – Palomar Mountain/NEAT MPS 172690
2002 08 07.41001 21 03 26.72 -11 48 29.1 20.5 R 644 – Palomar Mountain/NEAT MPS 172690
2002 08 07.43921 21 03 24.95 -11 48 38.3 20.4 R 644 – Palomar Mountain/NEAT MPS 172690
2002 08 11.27281 20 59 38.51 -12 09 06.0 20.3 R 644 – Palomar Mountain/NEAT MPS 172690
2002 08 11.34811 20 59 33.88 -12 09 30.2 19.9 R 644 – Palomar Mountain/NEAT MPS 172690
2002 08 11.41084 20 59 30.03 -12 09 50.3 19.7 R 644 – Palomar Mountain/NEAT MPS 172690
2002 08 16.26334 20 54 47.15 -12 36 23.2 20.7 R 644 – Palomar Mountain/NEAT MPS 172690
2002 08 16.28809 20 54 45.67 -12 36 30.0 20.8 R 644 – Palomar Mountain/NEAT MPS 172690
2002 08 16.32727 20 54 43.33 -12 36 43.1 20.0 R 644 – Palomar Mountain/NEAT MPS 172690
2004 03 17.14694 10 05 40.42 +09 06 29.4 20.8 V 691 – Steward Observatory, Kitt Peak-Spacewatch MPS 178156
2004 03 17.17563 10 05 39.27 +09 06 39.3 20.7 V 691 – Steward Observatory, Kitt Peak-Spacewatch MPS 178156
2004 03 17.20437 10 05 38.15 +09 06 49.0 21.0 V 691 – Steward Observatory, Kitt Peak-Spacewatch MPS 178156
2006 09 18.37767 01 32 35.34 +09 03 31.2 20.1 V 691 – Steward Observatory, Kitt Peak-Spacewatch MPS 179021
2006 09 18.39498 01 32 34.81 +09 03 25.0 19.7 R 699 – Lowell Observatory-LONEOS MPS 179021
2006 09 18.39499 01 32 34.92 +09 03 26.1 20.2 V 691 – Steward Observatory, Kitt Peak-Spacewatch MPS 179021
2006 09 18.41233 01 32 34.50 +09 03 20.8 19.9 V 691 – Steward Observatory, Kitt Peak-Spacewatch MPS 179021
2006 09 18.41693 01 32 34.32 +09 03 19.5   699 – Lowell Observatory-LONEOS MPS 179022
2006 09 18.43887 01 32 33.84 +09 03 11.4   699 – Lowell Observatory-LONEOS MPS 179022
2006 09 18.46082 01 32 33.34 +09 03 04.4   699 – Lowell Observatory-LONEOS MPS 179022
2006 09 25.36852 01 29 24.15 +08 23 21.6 19.9 V 691 – Steward Observatory, Kitt Peak-Spacewatch MPS 180693
2006 09 25.38589 01 29 23.52 +08 23 14.8 19.9 V 691 – Steward Observatory, Kitt Peak-Spacewatch MPS 180693
2006 09 25.40326 01 29 22.90 +08 23 08.2 19.8 V 691 – Steward Observatory, Kitt Peak-Spacewatch MPS 180693
2006 09 26.33536 01 28 51.49 +08 17 05.0 19.6 V G96 – Mt. Lemmon Survey MPS 180693
2006 09 26.34286 01 28 51.20 +08 17 02.1 19.6 V G96 – Mt. Lemmon Survey MPS 180693
2006 09 26.35024 01 28 50.95 +08 16 59.2 19.4 V G96 – Mt. Lemmon Survey MPS 180693
2006 09 26.35771 01 28 50.66 +08 16 56.0 19.3 V G96 – Mt. Lemmon Survey MPS 180693
2006 10 03.38612 01 24 13.92 +07 27 02.2   691 – Steward Observatory, Kitt Peak-Spacewatch MPS 182393
2006 10 03.40343 01 24 13.13 +07 26 54.1   691 – Steward Observatory, Kitt Peak-Spacewatch MPS 182393
2006 10 03.42080 01 24 12.25 +07 26 46.0   691 – Steward Observatory, Kitt Peak-Spacewatch MPS 182393
2006 10 15.37279 01 14 41.96 +05 51 25.7 18.6 V 703 – Catalina Sky Survey MPS 182669
2006 10 15.37918 01 14 41.60 +05 51 21.6 19.1 V 703 – Catalina Sky Survey MPS 182669
2006 10 15.38554 01 14 41.24 +05 51 19.2 19.5 V 703 – Catalina Sky Survey MPS 182669
2006 10 15.39191 01 14 40.92 +05 51 15.8 19.3 V 703 – Catalina Sky Survey MPS 182669
2006 10 17.21211 01 13 10.88 +05 36 30.7 19.4 V G96 – Mt. Lemmon Survey MPS 182669
2006 10 17.21797 01 13 10.56 +05 36 27.3 19.3 V G96 – Mt. Lemmon Survey MPS 182669
2006 10 17.22368 01 13 10.27 +05 36 24.8 19.2 V G96 – Mt. Lemmon Survey MPS 182669
2006 10 17.22935 01 13 09.98 +05 36 22.1 19.1 V G96 – Mt. Lemmon Survey MPS 182669
2006 10 21.19032 01 09 56.00 +05 04 55.0   291 – LPL/Spacewatch II MPS 183841
2006 10 21.19664 01 09 55.68 +05 04 52.2   291 – LPL/Spacewatch II MPS 183841
2006 10 21.20225 01 09 55.40 +05 04 49.6   291 – LPL/Spacewatch II MPS 183841
2006 10 31.13755 01 02 42.28 +03 54 07.8 19.3 V G96 – Mt. Lemmon Survey MPS 185171
2006 10 31.14521 01 02 42.00 +03 54 04.7 19.3 V G96 – Mt. Lemmon Survey MPS 185171
2006 10 31.15309 01 02 41.64 +03 54 01.8 19.4 V G96 – Mt. Lemmon Survey MPS 185171
2006 10 31.16073 01 02 41.35 +03 53 58.7 19.6 V G96 – Mt. Lemmon Survey MPS 185171
2006 11 11.23308 00 57 23.40 +02 58 16.2 21.0 V 703 – Catalina Sky Survey MPS 186697
2006 11 11.24415 00 57 23.18 +02 58 15.2 20.9 V 703 – Catalina Sky Survey MPS 186697
2006 11 11.25521 00 57 22.93 +02 58 12.1 20.1 V 703 – Catalina Sky Survey MPS 186697
2006 11 11.26631 00 57 22.60 +02 58 09.5 19.6 V 703 – Catalina Sky Survey MPS 186697
2006 11 16.19172 00 56 14.85 +02 43 15.4 19.7 V G96 – Mt. Lemmon Survey MPS 186697
2006 11 16.19228 00 56 14.85 +02 43 15.4 19.9 V G96 – Mt. Lemmon Survey MPS 186697
2006 11 16.19825 00 56 14.78 +02 43 14.6 19.9 V G96 – Mt. Lemmon Survey MPS 186697
2006 11 16.19880 00 56 14.74 +02 43 14.3 19.9 V G96 – Mt. Lemmon Survey MPS 186697
2006 11 16.20478 00 56 14.67 +02 43 13.8 19.8 V G96 – Mt. Lemmon Survey MPS 186697
2006 11 16.20531 00 56 14.67 +02 43 13.4 19.9 V G96 – Mt. Lemmon Survey MPS 186697
2006 11 16.21115 00 56 14.60 +02 43 12.6 20.0 V G96 – Mt. Lemmon Survey MPS 186697
2006 11 16.21169 00 56 14.60 +02 43 12.5 20.1 V G96 – Mt. Lemmon Survey MPS 186697
2008 04 03.35174 13 16 42.27 -06 47 30.7 20.4 V G96 – Mt. Lemmon Survey MPS 245504
2008 04 03.35771 13 16 41.91 -06 47 28.5 20.9 V G96 – Mt. Lemmon Survey MPS 245504
2008 04 03.36365 13 16 41.55 -06 47 26.1 21.0 V G96 – Mt. Lemmon Survey MPS 245504
2008 04 03.36958 13 16 41.23 -06 47 24.0 20.5 V G96 – Mt. Lemmon Survey MPS 245504
2008 05 02.28173 12 52 24.52 -03 45 47.4 21.3 V G96 – Mt. Lemmon Survey MPS 248786
2008 05 02.28701 12 52 24.24 -03 45 46.1 21.1 V G96 – Mt. Lemmon Survey MPS 248786
2008 05 02.29225 12 52 24.06 -03 45 44.8 21.4 V G96 – Mt. Lemmon Survey MPS 248786
2008 05 02.29746 12 52 23.84 -03 45 42.8 21.1 V G96 – Mt. Lemmon Survey MPS 248786
2010 12 10.41179 08 01 33.06 +14 05 12.8 19.9 V G96 – Mt. Lemmon Survey MPS 361904
2010 12 10.42013 08 01 32.91 +14 05 12.2 19.9 V G96 – Mt. Lemmon Survey MPS 361904
2010 12 10.42855 08 01 32.70 +14 05 10.8 19.5 V G96 – Mt. Lemmon Survey MPS 361904
2010 12 10.43683 08 01 32.59 +14 05 10.6 19.4 V G96 – Mt. Lemmon Survey MPS 361904
2011 01 09.24421 07 39 21.14 +14 39 58.7 18.7 R H15 – ISON-NM Observatory, Mayhill MPS 366526
2011 01 09.25780 07 39 20.26 +14 40 01.4 19.0 R H15 – ISON-NM Observatory, Mayhill MPS 366526
2011 01 09.27297 07 39 19.27 +14 40 04.4 19.2 R H15 – ISON-NM Observatory, Mayhill MPS 366526
2011 01 09.28640 07 39 18.40 +14 40 07.0 19.2 R H15 – ISON-NM Observatory, Mayhill MPS 366526
2011 01 09.31866 07 39 16.34 +14 40 13.5 18.9 V 703 – Catalina Sky Survey MPS 366526
2011 01 09.32546 07 39 15.80 +14 40 13.7 19.1 V 703 – Catalina Sky Survey MPS 366526
2011 01 09.33236 07 39 15.40 +14 40 14.8 18.7 V 703 – Catalina Sky Survey MPS 366526
2011 01 13.25264 07 35 10.50 +14 53 36.2 19.2 V G96 – Mt. Lemmon Survey MPS 366526
2011 01 13.25907 07 35 10.06 +14 53 37.6 19.3 V G96 – Mt. Lemmon Survey MPS 366526
